Location: Stony Creek
(40.9500°S, 175.8500°E)
Time: 10:14:14
(UTC+00:00)

CZ-4C R/B - Pass Details

Date: 15 May 2026
Orbit: 474 x 1503 km, 63.4° (Epoch: 10 June)

Event Time Altitude Azimuth Distance (km) Brightness Sun altitude
Rises 18:05:40 0° 349° (N) 4,625 6.1 -13.7°
Reaches altitude 10° 18:08:53 10° 355° (N) 3,629 5.6 -13.1°
Maximum altitude 18:17:29 47° 64° (ENE) 1,765 4.4 -11.5°
Drops below altitude 10° 18:24:57 10° 134° (SE) 3,167 5.6 -10.1°
Sets 18:27:34 0° 139° (SE) 3,998 6.0 -9.7°
